Location: Gro�wechsungen
(51.4926°N, 10.6901°E)
Time: 02:32:42
(UTC+00:00)

Resurs 01 Rocket - Pass Details

Date: 18 September 2020
Orbit: 633 x 645 km, 98.0° (Epoch: 22 October)

Event Time Altitude Azimuth Distance (km) Brightness Sun altitude
Exits shadow 20:56:51 19° 255° (WSW) 1,518 3.7 -29.9°
Maximum altitude 20:57:37 20° 269° (W) 1,483 3.8 -30.0°
Drops below altitude 10° 21:00:57 10° 317° (NW) 2,053 5.1 -30.3°
Sets 21:03:41 0° 335° (NNW) 2,967 6.2 -30.6°
